Location: Rounton
(54.4000°N, 1.3500°W)
Time: 22:03:34
(UTC+01:00)

Vanguard 1 - Visible Passes

Search period start: 05 June 2023 00:00
Search period end: 15 June 2023 00:00
Orbit: 649 x 3832 km, 34.2° (Epoch: 04 June)

Date Brightness Start Highest point End Pass type
(mag) Time Alt. Az. Time Alt. Az. Time Alt. Az.
05 Jun 12.0 00:47:03 10° WSW 00:55:15 19° SSW 00:58:36 16° S visible
05 Jun 12.4 22:42:10 10° WSW 22:55:49 30° S 23:04:29 10° SE visible
06 Jun 12.2 01:08:12 10° WSW 01:15:05 16° SW 01:17:46 15° SSW visible
06 Jun 12.4 23:02:39 10° WSW 23:15:56 29° SSW 23:24:16 11° SE visible
07 Jun 12.4 01:29:56 10° WSW 01:34:47 13° SW 01:36:55 12° SSW visible
07 Jun 12.3 23:23:18 10° WSW 23:35:57 27° SSW 23:43:23 13° SSE visible
08 Jun 12.3 23:44:06 10° WSW 23:55:53 24° SSW 00:02:30 14° SSE visible
10 Jun 12.4 00:05:10 10° WSW 00:15:42 21° SW 00:21:36 14° S visible
11 Jun 12.5 00:26:33 10° WSW 00:35:25 18° SW 00:40:42 13° SSW visible
11 Jun 12.6 22:20:02 10° WSW 22:35:56 32° SSW 22:46:24 10° SE visible
12 Jun 12.7 00:48:37 10° WSW 00:54:59 14° SW 00:59:47 11° SSW visible
12 Jun 12.6 22:40:49 10° WSW 22:55:53 29° SSW 23:06:01 10° SSE visible
13 Jun 12.9 01:14:23 10° SW 01:14:27 10° SW 01:14:32 10° SW visible
13 Jun 12.7 23:01:48 10° W 23:15:44 25° SW 23:25:19 10° SSE visible
14 Jun 12.8 23:23:04 10° W 23:35:27 22° SW 23:44:24 10° S visible
